Regional Weather Roundup
Issued by NWS

Home | Current Version | Previous Version | Text Only | Print | Product List | Glossary On
Versions: 1 2 3 4 5 6 7 8 9 10 11 12 13 14 15 16 17 18 19 20 21 22 23 24 25 26 27 28 29 30 31 32 33 34 35 36 37 38 39 40 41 42 43 44 45 46 47 48 49 50
000
ASCA44 KEWX 311320
RWRMX

LATIN AMERICA AND CARIBBEAN REGIONAL WEATHER ROUNDUP
NATIONAL WEATHER SERVICE AUSTIN/SAN ANTONIO TX
800 AM CDT FRI JUL 31 2015

NOTE: "FAIR" INDICATED FEW OR NO CLOUDS BELOW 12,000 FEET WITH NO
SIGNIFICANT WEATHER AND/OR OBSTRUCTIONS TO VISIBILITY.

BAJA CALIFORNIA

CITY           SKY/WX    TMP DP  RH WIND       PRES   REMARKS
LORETO         MOCLDY    86  79  79 CALM      29.86  HX  99
S.J. DEL CABO  PTCLDY    77  70  78 W6        29.91
TIJUANA        CLOUDY    68  61  77 CALM      30.04

NORTHWESTERN MEXICO

CITY           SKY/WX    TMP DP  RH WIND       PRES   REMARKS
DURANGO        PTCLDY    55  54  94 SE2       30.35
CD. JUAREZ     MOCLDY    70  55  60 N12       30.18
LOS MOCHIS     PTCLDY    86  77  74 CALM      29.87  HX  97

NORTHEASTERN MEXICO

CITY           SKY/WX    TMP DP  RH WIND       PRES   REMARKS
CHIHUAHUA      PTCLDY    63  55  77 SW6       30.25S
MATAMOROS      CLOUDY    79  77  94 CALM      30.02S FOG
MONCLOVA       PTCLDY    79  64  61 CALM      30.07
MONTERREY      MOSUNNY   73  66  78 CALM      30.05R
NUEVO LAREDO   SUNNY     81  73  78 SE6       30.01R
PIEDRAS NEGRAS MOSUNNY   77  66  69 CALM      30.06
REYNOSA        PTSUNNY   73  70  88 S3        30.00S
SALTILLO       CLEAR     66  55  68 CALM      30.29S
TORREON        CLEAR     77  57  50 CALM      30.17R
CD. VICTORIA   SUNNY     70  64  83 W3        30.05R

WESTERN MEXICO

CITY           SKY/WX    TMP DP  RH WIND       PRES   REMARKS
AGUASCALIENTES PTCLDY    55  48  76 N6        30.34R
COLIMA         MOCLDY    73  68  83 CALM      30.03
GUADALAJARA    MOCLDY    61  59  94 S5        30.23R
MAZATLAN       CLOUDY    73  70  88 W6        29.84F
P. VALLARTA    CLOUDY    75  70  83 CALM      29.88R
ZACATECAS      MOCLDY    55  43  62 E12       30.37R

CENTRAL MEXICO

CITY           SKY/WX    TMP DP  RH WIND       PRES   REMARKS
CUERNAVACA     PTCLDY    66  52  59 CALM      30.20R
MEXICO CITY    PTCLDY    57  50  77 NW5       30.39R
POZA RICA      PTSUNNY   81  75  83 N5        30.04R
PUEBLA         MOSUNNY   50  46  87 W6        30.39R WCI  48
QUERETARO      PTCLDY    54  52  94 CALM      30.38R
S. LUIS POTOSI CLEAR     54  52  94 CALM      30.34R
TAMPICO        SUNNY     79  75  89 NW5       30.02R
TOLUCA         PTCLDY    50  46  87 CALM      30.44S HAZE

SOUTHERN MEXICO

CITY           SKY/WX    TMP DP  RH WIND       PRES   REMARKS
ACAPULCO       MOCLDY    77  73  88 NW7       29.90S
B. DE HUATULCO CLOUDY    77  68  73 CALM      30.00R
OAXACA         CLOUDY    54  50  87 CALM      30.29R
P. ESCONDIDO   PTSUNNY   77  72  83 NE12      30.01S
VERACRUZ       MOSUNNY   75  75 100 W3        29.99R
ZIHUATANEJO    MOCLDY    77  73  88 NE5       29.93S

YUCATAN PENINSULA

CITY           SKY/WX    TMP DP  RH WIND       PRES   REMARKS
CAMPECHE       MOSUNNY   73  73 100 CALM      29.99R
CANCUN         MOSUNNY   75  75 100 CALM      30.03R
CHETUMAL       MOSUNNY   82  73  74 SE12      30.00R
CD. DEL CARMEN MOSUNNY   81  75  83 E5        29.97R
COZUMEL        MOSUNNY   73  73 100 CALM      30.03R
MERIDA         MOSUNNY   79  73  83 CALM      30.04R
MINATITLAN     MOSUNNY   75  68  78 CALM      29.94R
TAPACHULA      MOSUNNY   73  72  94 CALM      29.92R
TUX. GUTIERREZ PTSUNNY   70  66  88 SW2       30.03R
VILLAHERMOSA   CLOUDY    75  73  94 CALM      30.00R

CENTRAL AMERICA

CITY           SKY/WX    TMP DP  RH WIND       PRES   REMARKS
BELIZE CITY    PTSUNNY   84  77  79 E3        29.99R HX  94
MANAGUA        PTSUNNY   77  72  83 SE5       29.86S

CARIBBEAN

CITY           SKY/WX    TMP DP  RH WIND       PRES   REMARKS
ARUBA          MOSUNNY   86  77  74 E20G31    29.92S HX  97
CURACAO        PTSUNNY   84  75  74 E13       29.97R HX  92
KINGSTON       MOSUNNY   84  73  70 NW6       29.97S HX  91
NASSAU         PTSUNNY   84  75  74 S7        30.06R HX  92
SAN JUAN       MOSUNNY   86  77  74 E18G25    30.07R HX  97
SANTO DOMINGO  MOSUNNY   84  73  70 E12       30.03S HX  91
ST. CROIX      MOSUNNY   88  73  62 E17       30.07R HX  96
ST. KITTS      MOSUNNY   84  77  79 E16       30.06S HX  94
ST. MAARTEN    MOSUNNY   86  73  66 E17       30.06S HX  93
ST. THOMAS     PTSUNNY   88  75  66 E14       30.07  HX  97

$$




USA.gov is the U.S. government's official web portal to all federal, state and local government web resources and services.